Location: Hylvaty SDH
(49.9612°N, 16.4057°E)
Time: 20:11:34
(UTC+01:00)

Vanguard 1 Rocket - Pass Details

Date: 05 October 2020
Orbit: 656 x 4221 km, 34.3° (Epoch: 30 October)

Event Time Altitude Azimuth Distance (km) Brightness Sun altitude
Rises 14:52:22 0° 178° (S) 3,956 11.4 28.3°
Reaches altitude 10° 14:57:37 10° 145° (SE) 3,657 10.8 27.8°
Maximum altitude 15:00:13 11° 129° (SE) 3,885 10.7 27.5°
Drops below altitude 10° 15:03:13 10° 113° (ESE) 4,380 10.8 27.2°
Sets 15:12:02 0° 87° (E) 6,446 11.3 26.2°
